SCP
0 0 0 0 0 0 0 0 0 0 0 1 1 1 2 2 2 2 2 2 2 2 2 2 3 3 3 2 2 2 2 3 3 3 3 2 2 2 1 1 1 1 1 1
0 0 0 0 0 0 0 0 0 0 1 1 1 2 2 2 2 2 2 3 3 3 2 2 3 3 3 3 3 3 3 3 3 4 3 3 2 2 2 2 2 2 1 1
0 0 0 0 0 0 0 0 0 0 1 1 1 2 2 2 2 3 3 4 3 3 2 2 3 3 3 3 3 3 3 4 4 4 4 3 3 2 2 2 2 2 1 1
0 0 0 0 0 0 0 0 0 0 0 1 1 1 2 2 2 3 4 4 4 3 2 2 2 3 3 4 4 4 4 4 4 4 4 4 4 4 3 3 3 2 1 1
0 0 0 0 0 0 0 0 0 0 0 0 1 1 2 2 2 3 3 4 4 2 2 2 2 3 3 4 4 4 4 4 4 4 4 5 5 5 4 3 2 2 1 0
0 0 0 0 0 0 0 0 0 0 0 0 0 1 2 2 2 2 2 3 3 2 2 2 2 3 3 3 3 3 4 5 5 4 4 5 6 6 4 3 2 1 0 0
0 0 0 0 0 0 0 0 0 0 0 0 1 1 2 2 2 2 2 2 2 2 2 2 2 2 2 2 2 2 4 4 4 3 3 4 5 5 4 2 1 0 0 0
0 0 0 0 0 0 0 0 0 0 0 0 1 1 2 1 2 2 2 2 1 1 1 1 1 1 1 1 1 2 3 4 3 2 2 2 3 3 2 1 0 0 0 0
0 0 0 0 0 0 0 0 0 0 0 0 1 1 1 1 1 2 1 1 1 1 1 1 0 0 0 0 1 1 2 2 2 1 1 1 1 1 0 0 0 0 0 0
0 0 0 0 0 0 0 0 0 0 0 0 1 1 1 1 1 1 1 1 0 0 0 0 0 0 0 0 0 0 1 1 0 0 0 0 0 0 0 0 0 0 0 0
0 0 0 0 0 0 0 0 0 0 0 0 0 1 1 1 1 1 1 0 0 0 0 0 0 0 0 0 0 0 0 0 0 0 0 0 0 0 0 0 0 0 0 0
0 0 0 0 0 0 0 0 0 0 0 0 0 1 1 1 1 1 1 0 0 0 0 0 0 0 0 0 0 0 0 0 0 0 0 0 0 0 0 0 0 0 0 0
0 0 0 0 0 0 0 0 0 0 0 0 0 1 1 1 1 1 1 0 0 0 0 0 0 0 0 0 0 0 0 0 0 0 0 0 0 0 0 0 0 0 0 0
0 0 0 0 0 0 1 1 0 0 0 0 0 1 1 1 1 1 1 0 0 0 0 0 0 0 0 0 0 0 0 0 0 0 0 0 0 0 0 0 0 0 0 0
0 0 0 0 0 0 0 1 0 0 0 0 0 1 1 1 1 1 1 0 0 0 0 0 0 0 0 0 0 0 0 0 0 0 0 0 0 0 0 0 0 0 0 0
0 0 0 0 0 0 0 0 0 0 0 0 0 0 0 1 1 1 0 0 0 0 0 0 0 0 0 0 0 0 0 0 0 0 0 0 0 0 0 0 0 0 0 0
0 0 0 0 0 0 0 0 0 0 0 0 0 0 0 1 1 1 0 0 0 0 0 0 0 0 0 0 0 0 0 0 0 0 0 0 0 0 0 0 0 0 0 0
0 0 0 0 0 0 0 0 0 0 0 0 0 0 0 1 0 0 0 0 0 0 0 0 0 0 0 0 0 0 0 0 0 0 0 0 0 0 0 0 0 0 0 0
0 0 0 0 0 0 0 0 0 0 0 0 0 0 0 0 0 0 0 0 0 0 0 0 0 0 0 0 0 0 0 0 0 0 0 0 0 0 0 0 0 0 0 0
0 0 0 0 0 0 0 0 0 0 0 0 0 0 0 0 0 0 0 0 0 0 0 0 0 0 0 0 0 0 0 0 0 0 0 0 0 0 0 0 0 0 0 0
0 0 0 0 0 0 0 0 0 0 0 0 0 0 0 0 0 0 0 0 0 0 0 0 0 0 0 0 0 0 0 0 0 0 0 0 0 0 0 0 0 0 0 0
0 0 0 0 0 0 0 0 0 0 0 0 0 0 0 0 0 0 0 0 0 0 0 0 0 0 0 0 0 0 0 0 0 0 0 0 0 0 0 0 0 0 0 0
0 0 0 0 0 0 0 0 0 0 0 0 0 0 0 0 0 0 0 0 0 0 0 0 0 0 0 0 0 0 0 0 0 0 0 0 0 0 0 0 0 0 0 0
0 0 0 0 0 0 0 0 0 0 0 0 0 0 0 0 0 0 0 0 0 0 0 0 0 0 0 0 0 0 0 0 0 0 0 0 0 0 0 0 0 0 0 0
0 0 0 0 0 0 0 0 0 0 0 0 0 0 0 0 0 0 0 0 0 0 0 0 0 0 0 0 0 0 0 0 0 0 0 0 0 0 0 0 0 0 0 0
0 0 0 0 0 0 0 0 0 0 0 0 0 0 0 0 0 0 0 0 0 0 0 0 0 0 0 0 0 0 0 0 0 0 0 0 0 0 0 0 0 0 0 0
Wind_Speed
3 4 3 5 6 4 2 1 3 5 4 2 2 4 7 7 6 5 5 5 4 3 4 5 4 3 3 3 3 4 5 6 6 5 5 4 3 3 2 2 3 3 3 4
4 2 7 4 3 3 2 2 4 5 2 1 4 7 8 10 9 8 8 7 6 5 6 7 8 7 5 3 3 3 3 4 5 5 4 3 4 4 3 3 4 4 4 4
4 5 2 3 2 2 2 3 3 3 4 3 4 5 6 8 11 12 11 10 10 9 8 7 7 7 7 6 3 2 2 3 4 5 5 5 4 4 3 4 4 5 5 6
4 5 2 3 3 4 3 5 5 2 1 2 2 3 3 5 9 11 11 11 11 10 10 9 9 9 8 7 6 6 5 5 5 5 6 6 5 4 3 4 5 6 7 7
5 3 4 4 6 7 7 4 3 2 2 1 2 5 1 2 5 7 9 10 10 10 10 10 10 9 9 9 8 8 8 8 6 6 6 6 6 5 6 7 8 8 7 9
5 3 4 6 4 5 4 3 4 4 4 1 2 5 1 1 3 5 7 9 10 10 10 11 10 10 11 10 10 10 11 11 9 8 7 8 9 8 9 8 8 7 6 8
4 4 3 3 1 1 3 5 4 3 3 2 1 5 3 4 6 7 8 9 10 10 10 11 12 12 12 13 12 12 13 13 12 12 11 11 11 11 11 9 9 8 7 7
1 6 3 3 5 5 4 8 7 4 4 1 2 4 4 6 8 9 9 9 10 11 11 12 12 12 12 13 13 13 14 14 13 13 14 13 12 9 9 10 9 9 7 7
3 5 4 3 3 7 5 3 5 6 3 3 2 4 5 7 8 9 9 9 10 11 12 12 12 13 13 14 14 14 14 14 14 14 14 14 13 12 11 11 10 8 7 8
4 3 5 4 4 3 4 7 6 6 5 2 2 4 5 10 9 8 8 8 9 10 11 12 12 12 13 13 13 14 14 14 14 13 12 12 12 12 11 11 11 10 10 9
2 1 5 4 3 0 3 4 5 4 5 6 4 3 2 11 11 10 9 8 9 10 11 11 11 11 12 12 12 13 13 14 14 13 12 13 12 12 12 11 10 10 9 9
2 4 1 3 3 1 2 3 5 5 2 3 5 2 1 9 11 11 10 9 9 11 11 11 11 11 11 11 12 12 12 13 12 12 12 12 11 11 11 11 9 9 9 9
3 4 3 5 6 6 5 3 2 5 5 4 5 3 4 10 11 11 12 11 11 12 12 11 11 10 10 10 11 11 11 11 11 11 12 11 11 10 10 9 8 8 8 8
5 4 4 4 3 1 3 4 2 4 4 4 5 9 10 12 13 12 12 11 11 11 11 11 10 10 9 9 10 10 10 9 10 11 11 10 9 8 8 8 8 7 7 6
5 4 3 3 2 4 5 6 5 3 3 5 6 9 12 13 13 12 12 12 12 12 12 11 11 9 9 9 9 9 8 8 9 9 9 8 6 7 7 7 6 6 5 5
4 4 3 3 3 5 7 9 7 5 3 4 7 4 5 10 10 11 12 13 13 13 13 12 11 10 9 8 8 8 7 6 7 8 7 6 6 6 6 5 5 5 4 4
3 4 3 0 2 3 6 6 5 4 4 2 2 3 10 11 11 11 11 12 13 13 13 12 10 8 7 7 6 6 6 6 6 6 5 5 5 5 4 4 4 4 3 3
5 4 3 2 3 3 2 1 2 4 5 4 4 5 8 10 10 8 9 11 12 12 12 11 9 8 6 6 5 5 5 6 6 5 4 4 4 3 3 3 3 3 2 2
3 6 4 3 3 1 1 1 1 1 3 3 6 9 11 13 11 8 7 10 11 11 11 9 8 7 6 6 5 6 5 5 4 4 3 2 2 2 2 2 2 2 2 2
6 5 5 4 3 1 2 3 1 3 1 2 6 10 11 7 5 5 8 11 12 11 10 9 7 7 6 5 5 6 5 4 3 2 1 1 1 1 1 1 1 1 1 2
5 6 5 3 2 2 3 4 1 1 3 3 6 8 6 4 5 10 12 11 11 10 9 8 7 6 5 4 5 5 3 2 1 1 1 1 0 0 0 0 1 1 2 3
2 2 2 2 2 2 4 3 2 2 2 5 7 7 9 11 13 13 12 11 11 10 8 7 6 5 3 4 5 4 2 1 0 1 1 1 1 1 0 1 1 2 2 3
2 3 4 4 3 3 3 2 2 3 5 5 7 9 13 13 13 12 11 10 9 8 6 5 6 5 3 2 3 3 1 1 1 1 1 2 2 2 1 0 0 1 2 2
1 2 4 2 1 2 3 3 4 5 6 7 9 12 13 13 12 12 10 9 8 6 6 5 6 5 2 1 1 2 1 1 0 1 2 2 2 2 2 1 1 1 1 1
3 3 4 2 1 3 4 4 5 8 10 12 11 10 11 14 13 11 9 8 7 5 4 4 5 4 2 1 1 1 1 0 1 2 2 2 2 2 1 1 1 0 1 2
3 5 6 6 7 6 4 4 6 9 9 11 13 10 9 10 11 10 8 6 6 5 4 4 3 2 1 1 2 2 1 1 1 2 2 2 1 1 1 1 2 3 1 1
Wind_Direction
98 96 186 212 195 197 197 252 294 278 286 30 54 34 21 27 56 71 73 77 80 77 63 59 55 63 91 131 143 150 172 172 165 166 168 161 153 125 109 105 97 103 112 120
55 240 225 209 188 193 214 273 292 298 339 93 85 60 46 47 53 60 66 63 58 56 51 50 50 47 49 74 104 134 157 168 172 171 162 132 117 110 97 84 74 72 89 96
182 235 207 171 195 196 230 211 242 270 347 38 98 55 53 62 61 58 55 56 51 49 47 49 50 47 43 38 46 92 120 130 141 138 122 114 102 94 96 87 75 62 69 78
223 248 200 197 226 179 260 229 219 243 16 315 79 96 40 72 64 55 50 49 50 47 44 44 43 41 41 38 41 56 70 85 103 120 130 134 128 125 106 93 83 68 60 65
238 217 193 214 226 182 219 233 210 221 169 7 33 110 49 77 73 60 55 52 51 49 47 46 44 42 43 42 47 54 63 63 69 86 110 118 112 109 101 92 86 74 61 58
245 241 206 214 226 194 205 67 56 52 83 61 288 127 123 66 95 82 64 56 53 54 53 51 49 49 47 46 49 51 59 59 58 71 81 95 104 106 100 93 89 76 66 61
308 296 250 200 228 26 117 94 38 13 38 238 328 100 102 87 93 100 86 69 59 56 54 51 49 49 49 49 51 55 61 60 58 64 68 74 82 86 88 89 84 80 70 65
275 298 272 199 186 180 169 141 156 183 189 236 35 97 102 97 96 94 90 82 72 65 60 56 53 52 53 54 55 59 63 63 61 65 67 68 72 75 75 76 80 78 75 69
199 272 292 267 211 147 141 172 161 131 128 98 102 109 121 118 109 103 96 87 78 72 66 61 58 56 57 56 55 58 65 66 64 66 70 69 71 74 78 77 77 76 75 75
177 267 307 318 56 34 144 143 106 116 138 142 144 166 173 162 148 131 118 105 92 83 76 69 63 61 61 60 60 60 65 68 66 65 70 74 71 72 75 76 75 74 72 73
150 175 323 15 42 359 76 82 99 107 140 145 167 227 201 168 157 147 133 116 104 94 86 79 72 66 65 64 63 63 63 67 65 66 68 70 69 70 71 71 72 75 73 71
131 115 342 304 292 312 105 128 137 140 165 137 139 193 25 147 139 136 129 117 106 97 90 85 80 75 70 67 66 66 66 67 69 70 70 69 69 69 71 71 69 73 74 71
117 98 54 355 352 7 40 34 101 117 114 136 143 168 114 124 128 134 132 125 116 107 100 93 86 80 76 72 70 68 68 71 71 73 73 70 68 69 70 70 70 71 74 72
107 89 139 171 223 341 18 4 50 113 129 157 173 157 159 152 147 143 136 129 121 113 107 101 93 87 83 78 76 74 70 71 73 73 74 71 67 69 70 70 70 70 71 70
85 82 76 76 66 86 61 27 27 77 157 164 174 166 173 164 155 146 138 132 125 118 110 104 99 94 87 83 78 76 74 72 77 78 76 72 70 69 68 66 65 64 64 66
65 105 81 49 52 77 55 22 20 30 37 101 119 125 135 131 131 138 141 140 133 124 117 112 106 101 96 92 90 86 81 78 82 83 80 75 71 68 66 65 64 62 56 48
68 102 89 31 316 49 29 357 5 30 23 67 128 149 138 136 143 147 144 137 131 126 122 117 113 107 101 97 99 97 93 89 86 85 82 78 76 71 64 64 60 51 38 27
116 95 98 75 52 59 276 339 57 67 32 33 89 118 129 122 109 105 123 128 127 124 121 118 114 107 99 98 98 99 98 94 90 87 84 82 82 77 65 58 45 24 14 6
103 118 98 90 81 47 319 2 350 58 43 45 108 115 113 111 95 82 99 114 117 117 116 113 112 111 108 107 108 103 95 93 94 96 93 89 93 85 67 50 24 6 3 359
51 71 93 94 105 198 285 325 314 101 43 119 131 135 135 127 123 125 119 114 113 112 113 114 111 109 108 110 112 105 103 104 110 122 124 118 120 116 83 31 6 5 14 9
20 33 62 87 101 288 311 313 356 59 268 142 132 133 123 95 114 125 121 113 113 113 112 113 112 111 118 124 116 113 117 136 173 159 122 83 50 289 215 52 39 44 52 43
117 95 94 104 85 277 332 14 90 215 94 106 109 107 104 109 112 115 116 116 115 112 111 113 112 109 111 123 122 122 141 202 142 88 49 6 343 326 45 102 69 61 62 52
118 170 162 161 194 262 336 24 40 112 104 103 111 115 119 117 117 115 114 115 115 115 112 110 114 108 101 118 129 137 196 197 114 50 350 337 338 344 352 141 129 74 67 61
115 123 104 93 31 23 32 46 50 72 98 109 119 124 124 121 121 119 118 118 118 117 117 118 119 120 124 130 144 181 219 198 156 330 331 335 341 344 6 48 128 134 127 89
172 121 102 106 152 91 43 61 89 92 99 105 107 111 122 124 124 124 124 125 124 122 119 124 131 140 159 181 264 272 264 238 309 316 316 321 329 336 13 48 54 152 203 199
189 164 162 202 195 159 155 127 117 111 113 120 117 107 111 120 122 121 121 123 125 127 127 128 137 151 192 253 286 297 285 228 247 286 295 298 309 339 63 71 34 31 51 9